GW6342 Weather Reports


time (UTC)temp
C
wind
direction
speed
KPH
gust
KPH
rain 1hr
cm
rain 24hr
cm
rain mn
cm
humidity
%
barometer
mb
20260504173013 23 69 9.7 19.3 0.00 0.00 0.00 41 1017.7
20260504171533 23 69 6.4 16.1 0.00 0.00 0.00 42 1017.5
20260504081521 10 70 0.0 0.0 0.00 0.00 0.00 94 1018.0
20260504044532 12 70 0.0 1.6 0.00 0.00 0.00 88 1019.3
20260504043030 12 70 0.0 1.6 0.00 0.00 0.00 87 1019.4
20260504041520 12 70 0.0 0.0 0.00 0.00 0.00 89 1019.4
20260504040025 12 70 0.0 3.2 0.00 0.00 0.00 90 1019.4
20260504034528 12 70 0.0 0.0 0.00 0.00 0.00 90 1019.4
20260504033027 12 70 0.0 0.0 0.00 0.00 0.00 90 1019.4
20260504031527 12 70 0.0 0.0 0.00 0.00 0.00 89 1019.4
20260504030033 13 70 0.0 0.0 0.00 0.00 0.00 87 1019.4
20260504024511 13 70 0.0 1.6 0.00 0.00 0.00 88 1019.3
20260504023011 13 70 0.0 0.0 0.00 0.00 0.00 86 1019.1
20260504021512 14 70 0.0 0.0 0.00 0.00 0.00 83 1019.1
20260504020018 14 70 0.0 0.0 0.00 0.00 0.00 82 1018.8
20260504014513 15 70 0.0 0.0 0.00 0.00 0.00 83 1018.7
20260504013012 15 70 0.0 0.0 0.00 0.00 0.00 79 1018.5
20260504011515 16 70 0.0 0.0 0.00 0.00 0.00 76 1018.4
20260504010015 17 70 0.0 0.0 0.00 0.00 0.00 71 1018.3
20260504004522 18 70 0.0 0.0 0.00 0.00 0.00 69 1018.2
20260504003014 19 69 0.0 3.2 0.00 0.00 0.00 59 1018.2
20260504001516 21 70 0.0 1.6 0.00 0.00 0.00 54 1018.1
20260504000016 22 70 0.0 1.6 0.00 0.00 0.00 49 1018.1
20260503234526 25 70 0.0 1.6 0.00 0.00 0.00 41 1018.1
20260503233016 25 70 1.6 1.6 0.00 0.00 0.00 42 1018.2
20260503231516 25 70 1.6 6.4 0.00 0.00 0.00 37 1018.2
20260503230020 24 70 1.6 6.4 0.00 0.00 0.00 37 1018.2
20260503224519 24 70 3.2 8.0 0.00 0.00 0.00 36 1018.3
20260503223017 24 70 3.2 11.3 0.00 0.00 0.00 38 1018.4
20260503221523 24 70 1.6 8.0 0.00 0.00 0.00 36 1018.5
20260503220038 24 70 1.6 6.4 0.00 0.00 0.00 35 1018.5
20260503214518 24 70 1.6 9.7 0.00 0.00 0.00 36 1018.9
20260503213024 24 70 3.2 11.3 0.00 0.00 0.00 36 1019.1
20260503211521 23 70 3.2 8.0 0.00 0.00 0.00 38 1019.3
20260503210024 23 70 1.6 4.8 0.00 0.00 0.00 38 1019.4
20260503204523 24 70 6.4 12.9 0.00 0.00 0.00 38 1019.6
20260503203029 24 70 3.2 8.0 0.00 0.00 0.00 36 1019.7
20260503201524 23 70 3.2 9.7 0.00 0.00 0.00 35 1019.9
20260503200024 24 70 3.2 8.0 0.00 0.00 0.00 38 1020.4
20260503194523 24 69 6.4 12.9 0.00 0.00 0.00 37 1020.6
20260503193029 24 70 4.8 8.0 0.00 0.00 0.00 35 1020.7
20260503191522 23 69 1.6 12.9 0.00 0.00 0.00 38 1020.9
20260503190029 23 70 3.2 6.4 0.00 0.00 0.00 38 1021.2
20260503184526 23 70 4.8 11.3 0.00 0.00 0.00 35 1021.5
20260503183042 23 70 4.8 12.9 0.00 0.00 0.00 42 1021.7
20260503181526 23 70 1.6 8.0 0.00 0.00 0.00 39 1021.9
20260503180026 23 70 3.2 9.7 0.00 0.00 0.00 36 1022.0
20260503174517 23 70 1.6 14.5 0.00 0.00 0.00 37 1022.2